• In Hungary
  • List of Countries
  • For 7 days
  • Water Temperature
  • Satellite Maps
  • Weather Map
  • News
  • Weather Widgets
  • user-avatar
    Login

    Hourly Weather Andria

    Today, 23 September, Sunday

    Time Temperature Precipitation Wind Pressure Humidity
    00:00 +25°C° 0 mm 1 mps 750 mmHg 62%
    01:00 +25°C° 0 mm 1 mps 750 mmHg 62%
    02:00 +24°C° 0 mm 1 mps 750 mmHg 63%
    03:00 +24°C° 0 mm 1 mps 750 mmHg 64%
    04:00 +24°C° 0 mm 1 mps 750 mmHg 65%
    05:00 +24°C° 0 mm 1 mps 750 mmHg 63%
    06:00 +25°C° 0 mm 1 mps 751 mmHg 62%
    07:00 +25°C° 0 mm 1 mps 751 mmHg 61%
    08:00 +27°C° 0 mm 1 mps 751 mmHg 54%
    09:00 +29°C° 0 mm 1 mps 751 mmHg 48%
    10:00 +31°C° 0 mm 1 mps 752 mmHg 41%
    11:00 +32°C° 0 mm 1 mps 752 mmHg 38%
    12:00 +34°C° 0 mm 2 mps 751 mmHg 35%
    13:00 +35°C° 0 mm 2 mps 751 mmHg 33%
    14:00 +35°C° 0 mm 3 mps 751 mmHg 33%
    15:00 +34°C° 0 mm 3 mps 751 mmHg 34%
    16:00 +34°C° 0 mm 4 mps 750 mmHg 35%
    17:00 +33°C° 0 mm 4 mps 750 mmHg 40%
    18:00 +30°C° 0 mm 4 mps 750 mmHg 45%
    19:00 +29°C° 0 mm 3 mps 750 mmHg 49%
    20:00 +28°C° 0 mm 3 mps 750 mmHg 53%
    21:00 +27°C° 0 mm 3 mps 750 mmHg 57%
    22:00 +26°C° 0 mm 3 mps 750 mmHg 61%
    23:00 +26°C° 0 mm 3 mps 749 mmHg 64%

    Tomorrow, 24 September, Monday

    Time Temperature Precipitation Wind Pressure Humidity
    00:00 +26°C° 0 mm 3 mps 749 mmHg 67%
    01:00 +25°C° 0 mm 3 mps 749 mmHg 71%
    02:00 +25°C° 0 mm 3 mps 748 mmHg 71%
    03:00 +24°C° 0 mm 3 mps 748 mmHg 72%
    04:00 +24°C° 0 mm 3 mps 748 mmHg 72%
    05:00 +23°C° 0 mm 4 mps 748 mmHg 71%
    06:00 +23°C° 0 mm 4 mps 747 mmHg 69%
    07:00 +25°C° 0 mm 4 mps 747 mmHg 67%
    08:00 +26°C° 0 mm 4 mps 747 mmHg 60%
    09:00 +28°C° 0 mm 4 mps 747 mmHg 54%
    10:00 +30°C° 0 mm 4 mps 748 mmHg 47%
    11:00 +31°C° 0 mm 3 mps 747 mmHg 46%
    12:00 +31°C° 0 mm 3 mps 747 mmHg 45%
    13:00 +33°C° 0 mm 3 mps 747 mmHg 43%
    14:00 +33°C° 0 mm 4 mps 747 mmHg 45%
    15:00 +32°C° 0 mm 4 mps 747 mmHg 48%
    16:00 +30°C° 0 mm 5 mps 747 mmHg 50%
    17:00 +29°C° 0 mm 5 mps 747 mmHg 58%
    18:00 +27°C° 0 mm 6 mps 748 mmHg 66%
    19:00 +26°C° 0 mm 6 mps 749 mmHg 75%
    20:00 +24°C° 0.1 mm 7 mps 750 mmHg 72%
    21:00 +23°C° 0.1 mm 8 mps 750 mmHg 69%
    22:00 +22°C° 0.1 mm 8 mps 751 mmHg 67%
    23:00 +21°C° 0 mm 8 mps 751 mmHg 67%

    Day after tomorrow, 25 September, Tuesday

    Time Temperature Precipitation Wind Pressure Humidity
    00:00 +21°C° 0 mm 7 mps 752 mmHg 67%
    01:00 +20°C° 0 mm 7 mps 752 mmHg 67%
    02:00 +20°C° 0 mm 7 mps 752 mmHg 66%
    03:00 +20°C° 0 mm 7 mps 752 mmHg 66%
    04:00 +20°C° 0 mm 6 mps 752 mmHg 65%
    05:00 +20°C° 0 mm 7 mps 753 mmHg 63%
    06:00 +20°C° 0 mm 7 mps 753 mmHg 61%
    07:00 +20°C° 0 mm 7 mps 754 mmHg 59%
    08:00 +20°C° 0 mm 8 mps 754 mmHg 53%
    09:00 +21°C° 0 mm 8 mps 754 mmHg 48%
    10:00 +22°C° 0 mm 8 mps 755 mmHg 43%
    11:00 +22°C° 0 mm 8 mps 755 mmHg 41%
    12:00 +22°C° 0 mm 8 mps 755 mmHg 39%
    13:00 +23°C° 0 mm 8 mps 755 mmHg 37%
    14:00 +22°C° 0 mm 8 mps 755 mmHg 38%
    15:00 +22°C° 0 mm 8 mps 755 mmHg 38%
    16:00 +21°C° 0 mm 8 mps 755 mmHg 39%
    17:00 +20°C° 0 mm 7 mps 755 mmHg 41%
    18:00 +18°C° 0 mm 7 mps 755 mmHg 44%
    19:00 +18°C° 0 mm 7 mps 756 mmHg 46%
    20:00 +17°C° 0 mm 7 mps 756 mmHg 47%
    21:00 +17°C° 0 mm 7 mps 756 mmHg 48%
    22:00 +17°C° 0 mm 6 mps 757 mmHg 49%
    23:00 +17°C° 0 mm 6 mps 757 mmHg 51%

    26 September, Wednesday

    Time Temperature Precipitation Wind Pressure Humidity
    00:00 +16°C° 0 mm 6 mps 757 mmHg 52%
    01:00 +16°C° 0 mm 6 mps 757 mmHg 54%
    02:00 +16°C° 0 mm 6 mps 757 mmHg 54%
    03:00 +15°C° 0 mm 6 mps 757 mmHg 54%
    04:00 +15°C° 0 mm 6 mps 757 mmHg 55%
    05:00 +15°C° 0 mm 6 mps 757 mmHg 54%
    06:00 +15°C° 0 mm 6 mps 758 mmHg 53%
    07:00 +16°C° 0 mm 6 mps 758 mmHg 52%
    08:00 +17°C° 0 mm 6 mps 758 mmHg 48%
    09:00 +18°C° 0 mm 7 mps 759 mmHg 44%
    10:00 +20°C° 0 mm 7 mps 759 mmHg 39%
    11:00 +20°C° 0 mm 7 mps 759 mmHg 38%
    12:00 +21°C° 0 mm 7 mps 759 mmHg 37%
    13:00 +21°C° 0 mm 6 mps 759 mmHg 35%
    14:00 +21°C° 0 mm 6 mps 759 mmHg 36%
    15:00 +21°C° 0 mm 6 mps 759 mmHg 36%
    16:00 +20°C° 0 mm 5 mps 758 mmHg 36%
    17:00 +20°C° 0 mm 5 mps 759 mmHg 39%
    18:00 +19°C° 0 mm 4 mps 759 mmHg 41%
    19:00 +18°C° 0 mm 4 mps 759 mmHg 43%
    20:00 +17°C° 0 mm 3 mps 759 mmHg 46%
    21:00 +17°C° 0 mm 3 mps 759 mmHg 49%
    22:00 +16°C° 0 mm 3 mps 759 mmHg 52%
    23:00 +16°C° 0 mm 3 mps 759 mmHg 55%

    27 September, Thursday

    Time Temperature Precipitation Wind Pressure Humidity
    00:00 +16°C° 0 mm 3 mps 759 mmHg 58%
    01:00 +14°C° 0 mm 3 mps 759 mmHg 61%
    02:00 +14°C° 0 mm 3 mps 758 mmHg 63%
    03:00 +14°C° 0 mm 3 mps 758 mmHg 64%
    04:00 +14°C° 0 mm 3 mps 758 mmHg 65%
    05:00 +14°C° 0 mm 4 mps 758 mmHg 63%
    06:00 +14°C° 0 mm 4 mps 758 mmHg 60%
    07:00 +15°C° 0 mm 4 mps 758 mmHg 58%
    08:00 +18°C° 0 mm 4 mps 758 mmHg 52%
    09:00 +20°C° 0 mm 4 mps 757 mmHg 46%
    10:00 +22°C° 0 mm 4 mps 757 mmHg 40%
    11:00 +22°C° 0 mm 5 mps 757 mmHg 39%
    12:00 +23°C° 0 mm 5 mps 757 mmHg 38%
    13:00 +25°C° 0 mm 5 mps 756 mmHg 38%
    14:00 +24°C° 0 mm 6 mps 756 mmHg 40%
    15:00 +24°C° 0 mm 6 mps 755 mmHg 42%
    16:00 +24°C° 0 mm 6 mps 755 mmHg 44%
    17:00 +22°C° 0 mm 6 mps 754 mmHg 50%
    18:00 +21°C° 0 mm 5 mps 754 mmHg 57%
    19:00 +20°C° 0 mm 5 mps 754 mmHg 63%
    20:00 +20°C° 0 mm 5 mps 754 mmHg 65%
    21:00 +19°C° 0 mm 5 mps 754 mmHg 68%
    22:00 +19°C° 0 mm 4 mps 753 mmHg 70%
    23:00 +18°C° 0 mm 4 mps 753 mmHg 70%

    28 September, Friday

    Time Temperature Precipitation Wind Pressure Humidity
    00:00 +18°C° 0 mm 4 mps 752 mmHg 71%
    01:00 +18°C° 0 mm 4 mps 752 mmHg 71%
    02:00 +18°C° 0 mm 4 mps 752 mmHg 72%
    03:00 +18°C° 0 mm 4 mps 751 mmHg 72%
    04:00 +17°C° 0 mm 4 mps 751 mmHg 73%
    05:00 +18°C° 0 mm 4 mps 751 mmHg 72%
    06:00 +18°C° 0 mm 3 mps 751 mmHg 71%
    07:00 +19°C° 0 mm 3 mps 751 mmHg 70%
    08:00 +21°C° 0 mm 3 mps 751 mmHg 64%
    09:00 +22°C° 0 mm 3 mps 751 mmHg 58%
    10:00 +25°C° 0 mm 3 mps 751 mmHg 53%
    11:00 +26°C° 0 mm 3 mps 751 mmHg 48%
    12:00 +27°C° 0 mm 3 mps 750 mmHg 43%
    13:00 +28°C° 0 mm 3 mps 750 mmHg 39%
    14:00 +28°C° 0 mm 3 mps 750 mmHg 40%
    15:00 +27°C° 0 mm 3 mps 749 mmHg 41%
    16:00 +27°C° 0 mm 3 mps 749 mmHg 42%
    17:00 +26°C° 0 mm 3 mps 749 mmHg 48%
    18:00 +24°C° 0 mm 2 mps 749 mmHg 54%
    19:00 +23°C° 0 mm 2 mps 749 mmHg 60%
    20:00 +22°C° 0 mm 1 mps 749 mmHg 62%
    21:00 +22°C° 0 mm 1 mps 749 mmHg 64%
    22:00 +22°C° 0 mm 1 mps 749 mmHg 67%
    23:00 +21°C° 0 mm 1 mps 748 mmHg 68%
    Show more